Vorticity
9 7 -7 3 14 6 -21 7 27 -34 9 29 1 10 12 24 11 30 3 -3 4 7
12 14 -3 20 -0 12 18 11 12 13 10 5 10 27 5 39 17 -3 13 10 5 2
15 4 13 8 16 12 18 8 13 17 19 9 9 3 -3 -11 19 6 9 1 8 13
10 11 13 12 15 14 -2 -5 -7 10 10 20 5 14 7 10 12 12 13 8 5 7
14 18 14 11 33 27 21 22 17 -5 17 14 8 11 8 6 5 4 7 7 5 7
17 11 10 1 -19 -21 7 20 9 -0 13 12 6 6 6 6 5 4 7 11 8 7
6 9 9 8 12 8 11 8 8 10 6 6 3 5 5 4 8 9 6 7 7 7
6 7 6 8 10 11 7 6 5 6 8 6 7 10 10 9 7 8 6 6 5 8
10 11 14 10 9 9 10 9 7 7 8 6 6 8 7 5 5 5 5 8 10 8
11 10 8 6 4 5 6 7 5 5 6 7 5 5 4 5 7 8 8 8 8 6
6 6 6 5 4 4 4 5 5 5 5 6 6 7 7 7 7 7 6 2 3 9
6 7 8 7 5 3 3 4 3 3 4 4 5 6 4 5 4 7 7 13 11 8
11 5 4 6 10 12 13 8 5 6 6 6 7 10 8 8 11 13 8 7 6 6
8 8 9 10 10 11 13 13 10 10 9 7 10 13 14 10 6 6 4 5 6 6
Height
5731 5731 5735 5738 5739 5742 5740 5746 5749 5751 5751 5751 5749 5747 5743 5742 5740 5738 5737 5735 5734 5731
5721 5724 5726 5729 5732 5735 5735 5738 5738 5737 5739 5738 5734 5733 5734 5732 5730 5727 5725 5722 5722 5720
5711 5715 5717 5720 5722 5724 5725 5725 5724 5725 5725 5725 5725 5724 5724 5722 5718 5717 5716 5712 5709 5706
5704 5707 5710 5712 5714 5716 5716 5715 5716 5716 5717 5716 5715 5714 5711 5708 5706 5704 5703 5700 5697 5694
5695 5697 5701 5704 5704 5704 5705 5706 5706 5706 5705 5704 5703 5702 5699 5698 5695 5693 5691 5689 5684 5682
5686 5689 5692 5695 5696 5693 5696 5695 5695 5694 5693 5693 5693 5690 5688 5686 5684 5681 5678 5675 5672 5669
5677 5679 5681 5682 5683 5683 5683 5683 5681 5681 5680 5679 5679 5677 5677 5676 5671 5668 5665 5662 5659 5655
5669 5671 5672 5672 5673 5673 5673 5673 5673 5672 5670 5669 5667 5666 5664 5662 5658 5655 5651 5648 5644 5640
5663 5664 5665 5665 5664 5664 5664 5664 5663 5661 5658 5655 5654 5652 5650 5646 5643 5640 5636 5632 5628 5623
5655 5656 5656 5655 5655 5654 5653 5651 5649 5647 5644 5641 5639 5636 5634 5631 5627 5623 5620 5616 5612 5606
5646 5646 5645 5644 5643 5641 5640 5638 5635 5632 5629 5627 5624 5620 5617 5614 5611 5608 5604 5600 5595 5589
5636 5635 5634 5632 5631 5629 5626 5623 5621 5618 5615 5611 5608 5605 5602 5600 5597 5592 5588 5581 5575 5570
5624 5623 5622 5620 5618 5616 5613 5610 5607 5604 5600 5597 5594 5591 5586 5583 5578 5574 5569 5564 5556 5550
5611 5610 5608 5606 5603 5601 5598 5596 5592 5590 5586 5582 5578 5573 5569 5565 5561 5556 5551 5544 5536 5529